When you browse on this site, cookies collect data to enhance your experience and personalize the content and advertising you see.
Visit our Privacy Policy to learn more. By continuing to use the site, you agree to this use of cookies and data.
  • In Hungary
  • List of Countries
  • For 7 days
  • Water Temperature
  • Weather Map
  • News
  • Weather Widgets
  • user-avatar
    Login

    Hourly Weather Banat

    Today, 18 February, Tuesday

    Time Temperature Precipitation Wind Pressure Humidity
    00:00 +12°C° 0 mm 3 mps 739 mmHg 49%
    01:00 +11°C° 0 mm 3 mps 739 mmHg 50%
    02:00 +11°C° 0 mm 3 mps 739 mmHg 52%
    03:00 +10°C° 0 mm 3 mps 738 mmHg 54%
    04:00 +10°C° 0 mm 3 mps 738 mmHg 56%
    05:00 +10°C° 0 mm 2 mps 738 mmHg 57%
    06:00 +11°C° 0 mm 3 mps 738 mmHg 56%
    07:00 +12°C° 0 mm 3 mps 739 mmHg 55%
    08:00 +13°C° 0 mm 3 mps 739 mmHg 53%
    09:00 +17°C° 0 mm 3 mps 739 mmHg 47%
    10:00 +20°C° 0 mm 4 mps 739 mmHg 40%
    11:00 +23°C° 0 mm 4 mps 739 mmHg 34%
    12:00 +25°C° 0 mm 4 mps 739 mmHg 32%
    13:00 +26°C° 0 mm 5 mps 738 mmHg 29%
    14:00 +27°C° 0 mm 5 mps 738 mmHg 27%
    15:00 +26°C° 0 mm 4 mps 737 mmHg 32%
    16:00 +24°C° 0 mm 3 mps 737 mmHg 37%
    17:00 +23°C° 0 mm 2 mps 736 mmHg 42%
    18:00 +20°C° 0 mm 2 mps 737 mmHg 43%
    19:00 +19°C° 0 mm 1 mps 737 mmHg 44%
    20:00 +16°C° 0 mm 1 mps 738 mmHg 45%
    21:00 +15°C° 0 mm 1 mps 738 mmHg 46%
    22:00 +15°C° 0 mm 1 mps 738 mmHg 47%
    23:00 +14°C° 0 mm 1 mps 738 mmHg 49%

    Tomorrow, 19 February, Wednesday

    Time Temperature Precipitation Wind Pressure Humidity
    00:00 +13°C° 0 mm 0 mps 737 mmHg 48%
    01:00 +13°C° 0 mm 0 mps 737 mmHg 48%
    02:00 +13°C° 0 mm 0 mps 737 mmHg 47%
    03:00 +12°C° 0 mm 0 mps 737 mmHg 47%
    04:00 +13°C° 0 mm 1 mps 737 mmHg 48%
    05:00 +13°C° 0 mm 1 mps 736 mmHg 48%
    06:00 +14°C° 0 mm 2 mps 737 mmHg 48%
    07:00 +15°C° 0 mm 2 mps 738 mmHg 49%
    08:00 +14°C° 0 mm 3 mps 738 mmHg 49%
    09:00 +18°C° 0 mm 3 mps 739 mmHg 44%
    10:00 +20°C° 0 mm 3 mps 739 mmHg 39%
    11:00 +23°C° 0 mm 4 mps 739 mmHg 34%
    12:00 +25°C° 0 mm 4 mps 739 mmHg 32%
    13:00 +26°C° 0 mm 4 mps 738 mmHg 30%
    14:00 +27°C° 0 mm 4 mps 738 mmHg 29%
    15:00 +26°C° 0 mm 3 mps 738 mmHg 33%
    16:00 +24°C° 0 mm 3 mps 737 mmHg 37%
    17:00 +23°C° 0 mm 2 mps 737 mmHg 42%
    18:00 +21°C° 0 mm 3 mps 737 mmHg 44%
    19:00 +19°C° 0 mm 3 mps 738 mmHg 46%
    20:00 +18°C° 0 mm 3 mps 738 mmHg 47%
    21:00 +18°C° 0 mm 3 mps 738 mmHg 47%
    22:00 +17°C° 0 mm 4 mps 738 mmHg 47%
    23:00 +17°C° 0 mm 4 mps 738 mmHg 47%

    Day after tomorrow, 20 February, Thursday

    Time Temperature Precipitation Wind Pressure Humidity
    00:00 +17°C° 0 mm 4 mps 738 mmHg 49%
    01:00 +17°C° 0 mm 3 mps 738 mmHg 51%
    02:00 +17°C° 0 mm 3 mps 737 mmHg 53%
    03:00 +16°C° 0 mm 3 mps 737 mmHg 56%
    04:00 +16°C° 0 mm 3 mps 737 mmHg 59%
    05:00 +15°C° 0 mm 2 mps 737 mmHg 63%
    06:00 +16°C° 0 mm 3 mps 737 mmHg 61%
    07:00 +17°C° 0 mm 3 mps 738 mmHg 59%
    08:00 +18°C° 0 mm 4 mps 739 mmHg 57%
    09:00 +20°C° 0 mm 4 mps 739 mmHg 50%
    10:00 +23°C° 0 mm 4 mps 739 mmHg 42%
    11:00 +27°C° 0 mm 5 mps 739 mmHg 34%
    12:00 +28°C° 0 mm 5 mps 738 mmHg 32%
    13:00 +29°C° 0 mm 5 mps 737 mmHg 29%
    14:00 +30°C° 0 mm 5 mps 736 mmHg 26%
    15:00 +29°C° 0 mm 4 mps 736 mmHg 31%
    16:00 +27°C° 0 mm 4 mps 736 mmHg 36%
    17:00 +26°C° 0 mm 3 mps 736 mmHg 41%
    18:00 +24°C° 0 mm 3 mps 736 mmHg 47%
    19:00 +21°C° 0 mm 3 mps 736 mmHg 53%
    20:00 +20°C° 0 mm 4 mps 737 mmHg 59%
    21:00 +19°C° 0 mm 4 mps 737 mmHg 60%
    22:00 +19°C° 0 mm 4 mps 737 mmHg 61%
    23:00 +19°C° 0 mm 4 mps 737 mmHg 62%

    21 February, Friday

    Time Temperature Precipitation Wind Pressure Humidity
    00:00 +19°C° 0 mm 4 mps 737 mmHg 61%
    01:00 +19°C° 0 mm 5 mps 737 mmHg 60%
    02:00 +19°C° 0 mm 5 mps 737 mmHg 59%
    03:00 +19°C° 0 mm 5 mps 737 mmHg 58%
    04:00 +19°C° 0 mm 5 mps 737 mmHg 57%
    05:00 +19°C° 0 mm 5 mps 736 mmHg 56%
    06:00 +20°C° 0 mm 5 mps 737 mmHg 54%
    07:00 +21°C° 0 mm 4 mps 738 mmHg 52%
    08:00 +22°C° 0 mm 4 mps 739 mmHg 50%
    09:00 +23°C° 0 mm 5 mps 739 mmHg 45%
    10:00 +26°C° 0 mm 6 mps 739 mmHg 40%
    11:00 +28°C° 0 mm 7 mps 739 mmHg 35%
    18:00 +22°C° 0 mm 3 mps 738 mmHg 54%
    19:00 +20°C° 0 mm 3 mps 739 mmHg 60%
    20:00 +18°C° 0 mm 3 mps 739 mmHg 66%
    21:00 +18°C° 0 mm 3 mps 740 mmHg 70%
    22:00 +17°C° 0 mm 2 mps 740 mmHg 74%
    23:00 +16°C° 0 mm 2 mps 740 mmHg 79%

    22 February, Saturday

    Time Temperature Precipitation Wind Pressure Humidity
    00:00 +16°C° 0 mm 2 mps 740 mmHg 80%
    01:00 +16°C° 0 mm 2 mps 740 mmHg 81%
    02:00 +16°C° 0 mm 2 mps 739 mmHg 82%
    03:00 +15°C° 0 mm 2 mps 739 mmHg 82%
    04:00 +15°C° 0 mm 2 mps 739 mmHg 83%
    05:00 +15°C° 0 mm 2 mps 739 mmHg 84%
    06:00 +16°C° 0 mm 2 mps 740 mmHg 78%
    07:00 +17°C° 0 mm 2 mps 740 mmHg 73%
    08:00 +18°C° 0 mm 2 mps 741 mmHg 68%
    09:00 +21°C° 0 mm 2 mps 741 mmHg 59%
    10:00 +24°C° 0 mm 3 mps 741 mmHg 51%
    11:00 +27°C° 0 mm 3 mps 741 mmHg 43%
    12:00 +28°C° 0 mm 3 mps 741 mmHg 40%
    13:00 +29°C° 0 mm 3 mps 740 mmHg 38%
    14:00 +30°C° 0 mm 3 mps 739 mmHg 35%
    15:00 +29°C° 0 mm 2 mps 739 mmHg 38%
    16:00 +28°C° 0 mm 2 mps 739 mmHg 42%
    17:00 +27°C° 0 mm 1 mps 738 mmHg 45%
    18:00 +25°C° 0 mm 2 mps 739 mmHg 51%
    19:00 +23°C° 0 mm 2 mps 739 mmHg 57%
    20:00 +20°C° 0 mm 2 mps 739 mmHg 63%
    21:00 +19°C° 0 mm 2 mps 739 mmHg 66%
    22:00 +19°C° 0 mm 2 mps 739 mmHg 68%
    23:00 +18°C° 0 mm 2 mps 740 mmHg 70%

    23 February, Sunday

    Time Temperature Precipitation Wind Pressure Humidity
    00:00 +18°C° 0 mm 2 mps 739 mmHg 72%
    01:00 +17°C° 0 mm 2 mps 739 mmHg 73%
    02:00 +17°C° 0 mm 2 mps 739 mmHg 75%
    03:00 +16°C° 0 mm 1 mps 739 mmHg 78%
    04:00 +16°C° 0 mm 1 mps 739 mmHg 81%
    05:00 +14°C° 0 mm 0 mps 738 mmHg 83%
    06:00 +16°C° 0 mm 1 mps 739 mmHg 79%
    07:00 +18°C° 0 mm 1 mps 740 mmHg 75%
    08:00 +20°C° 0 mm 1 mps 740 mmHg 71%
    09:00 +22°C° 0 mm 1 mps 741 mmHg 62%
    10:00 +25°C° 0 mm 1 mps 741 mmHg 53%
    11:00 +28°C° 0 mm 1 mps 741 mmHg 44%
    12:00 +28°C° 0 mm 1 mps 740 mmHg 41%
    13:00 +29°C° 0 mm 1 mps 740 mmHg 37%
    14:00 +30°C° 0 mm 1 mps 739 mmHg 33%
    15:00 +29°C° 0 mm 1 mps 739 mmHg 36%
    16:00 +28°C° 0 mm 1 mps 738 mmHg 39%
    17:00 +27°C° 0 mm 1 mps 738 mmHg 42%
    18:00 +25°C° 0 mm 1 mps 738 mmHg 45%
    19:00 +24°C° 0 mm 2 mps 739 mmHg 47%
    20:00 +23°C° 0 mm 2 mps 739 mmHg 49%
    21:00 +21°C° 0 mm 2 mps 739 mmHg 51%
    22:00 +20°C° 0 mm 2 mps 739 mmHg 53%
    23:00 +19°C° 0 mm 2 mps 739 mmHg 55%
    Show more